TimeEST,TemperatureF,Dew PointF,Humidity,Sea Level PressureIn,VisibilityMPH,Wind Direction,Wind SpeedMPH,Gust SpeedMPH,PrecipitationIn,Events,Conditions,WindDirDegrees,DateUTC
12:15 AM,41.0,37.4,87,30.02,10.0,Calm,Calm,-,N/A,,Scattered Clouds,0,2012-11-04 04:15:00
12:35 AM,42.8,41.0,93,30.01,10.0,Calm,Calm,-,N/A,,Scattered Clouds,0,2012-11-04 04:35:00
12:55 AM,42.8,41.0,93,30.01,10.0,Calm,Calm,-,N/A,,Scattered Clouds,0,2012-11-04 04:55:00
1:15 AM,44.6,42.8,93,30.01,10.0,Calm,Calm,-,N/A,,Mostly Cloudy,0,2012-11-04 05:15:00
1:35 AM,44.6,42.8,93,30.01,10.0,Calm,Calm,-,N/A,,Overcast,0,2012-11-04 05:35:00
1:55 AM,44.6,42.8,93,30.01,10.0,Calm,Calm,-,N/A,,Overcast,0,2012-11-04 05:55:00
1:15 AM,44.6,42.8,93,30.01,10.0,Calm,Calm,-,N/A,,Scattered Clouds,0,2012-11-04 06:15:00
1:35 AM,44.6,42.8,93,30.01,10.0,Calm,Calm,-,N/A,,Scattered Clouds,0,2012-11-04 06:35:00
1:55 AM,46.4,42.8,87,30.00,10.0,Calm,Calm,-,N/A,,Scattered Clouds,0,2012-11-04 06:55:00
2:15 AM,46.4,42.8,87,30.00,10.0,Calm,Calm,-,N/A,,Scattered Clouds,0,2012-11-04 07:15:00
2:35 AM,60.8,46.4,59,29.99,10.0,WNW,4.6,-,N/A,,Clear,300,2012-11-04 07:35:00
2:55 AM,60.8,44.6,55,29.99,10.0,WNW,6.9,-,N/A,,Clear,300,2012-11-04 07:55:00
3:15 AM,60.8,44.6,55,29.99,10.0,West,9.2,-,N/A,,Clear,280,2012-11-04 08:15:00
3:35 AM,59.0,44.6,59,29.99,10.0,West,9.2,-,N/A,,Clear,260,2012-11-04 08:35:00
3:55 AM,60.8,46.4,59,29.99,10.0,West,6.9,-,N/A,,Clear,280,2012-11-04 08:55:00
4:15 AM,55.4,44.6,67,29.99,10.0,WNW,4.6,-,N/A,,Scattered Clouds,300,2012-11-04 09:15:00
4:35 AM,53.6,46.4,77,29.99,10.0,Calm,Calm,-,N/A,,Mostly Cloudy,0,2012-11-04 09:35:00
4:55 AM,51.8,44.6,76,29.99,10.0,Calm,Calm,-,N/A,,Mostly Cloudy,0,2012-11-04 09:55:00
5:15 AM,50.0,44.6,82,29.99,10.0,Calm,Calm,-,N/A,,Mostly Cloudy,0,2012-11-04 10:15:00
5:35 AM,50.0,44.6,82,29.99,10.0,Calm,Calm,-,N/A,,Overcast,0,2012-11-04 10:35:00
5:55 AM,50.0,44.6,82,30.00,10.0,Calm,Calm,-,N/A,,Overcast,0,2012-11-04 10:55:00
6:15 AM,50.0,46.4,87,29.99,10.0,Calm,Calm,-,N/A,,Overcast,0,2012-11-04 11:15:00
6:35 AM,50.0,46.4,87,30.00,10.0,Calm,Calm,-,N/A,,Overcast,0,2012-11-04 11:35:00
6:55 AM,50.0,46.4,87,30.00,10.0,Calm,Calm,-,N/A,,Overcast,0,2012-11-04 11:55:00
7:15 AM,50.0,46.4,87,30.00,10.0,Calm,Calm,-,N/A,,Overcast,0,2012-11-04 12:15:00
7:35 AM,50.0,46.4,87,30.01,10.0,Calm,Calm,-,N/A,,Overcast,0,2012-11-04 12:35:00
7:55 AM,51.8,46.4,82,30.01,10.0,Calm,Calm,-,N/A,,Mostly Cloudy,0,2012-11-04 12:55:00
8:15 AM,53.6,46.4,77,30.01,10.0,Calm,Calm,-,N/A,,Mostly Cloudy,0,2012-11-04 13:15:00
8:35 AM,53.6,46.4,77,30.01,5.0,Calm,Calm,-,N/A,,Haze,0,2012-11-04 13:35:00
8:55 AM,55.4,50.0,82,30.01,10.0,Calm,Calm,-,N/A,,Scattered Clouds,0,2012-11-04 13:55:00
9:15 AM,59.0,51.8,77,30.01,10.0,West,6.9,-,N/A,,Scattered Clouds,260,2012-11-04 14:15:00
9:35 AM,60.8,50.0,68,30.01,10.0,West,5.8,-,N/A,,Clear,270,2012-11-04 14:35:00
9:55 AM,60.8,48.2,63,30.00,10.0,Calm,Calm,-,N/A,,Clear,0,2012-11-04 14:55:00
10:15 AM,60.8,48.2,63,30.00,10.0,West,3.5,-,N/A,,Clear,260,2012-11-04 15:15:00
10:35 AM,62.6,48.2,59,30.00,10.0,NW,4.6,-,N/A,,Clear,310,2012-11-04 15:35:00
10:55 AM,62.6,46.4,55,30.00,10.0,West,4.6,-,N/A,,Clear,280,2012-11-04 15:55:00
11:15 AM,62.6,44.6,52,29.99,10.0,WNW,4.6,-,N/A,,Clear,290,2012-11-04 16:15:00
11:35 AM,62.6,46.4,55,29.99,10.0,WNW,3.5,-,N/A,,Clear,290,2012-11-04 16:35:00
11:55 AM,62.6,44.6,52,29.99,10.0,NW,8.1,-,N/A,,Clear,310,2012-11-04 16:55:00
12:15 PM,62.6,44.6,52,29.99,10.0,NW,6.9,-,N/A,,Clear,310,2012-11-04 17:15:00
12:35 PM,62.6,42.8,48,29.98,10.0,WNW,5.8,-,N/A,,Clear,300,2012-11-04 17:35:00
12:55 PM,60.8,42.8,52,29.98,10.0,WNW,4.6,-,N/A,,Clear,300,2012-11-04 17:55:00
1:15 PM,60.8,41.0,48,29.98,10.0,WNW,4.6,-,N/A,,Clear,300,2012-11-04 18:15:00
1:35 PM,60.8,41.0,48,29.98,10.0,WNW,5.8,-,N/A,,Clear,290,2012-11-04 18:35:00
1:55 PM,60.8,42.8,52,29.98,10.0,WNW,6.9,-,N/A,,Scattered Clouds,300,2012-11-04 18:55:00
2:15 PM,60.8,41.0,48,29.98,10.0,NW,5.8,-,N/A,,Scattered Clouds,310,2012-11-04 19:15:00
2:35 PM,60.8,42.8,52,29.97,10.0,WNW,5.8,-,N/A,,Mostly Cloudy,300,2012-11-04 19:35:00
2:55 PM,59.0,41.0,51,29.97,10.0,NW,6.9,-,N/A,,Scattered Clouds,310,2012-11-04 19:55:00
3:15 PM,60.8,41.0,48,29.97,10.0,NW,5.8,-,N/A,,Clear,320,2012-11-04 20:15:00
3:35 PM,60.8,42.8,52,29.95,10.0,North,5.8,-,N/A,,Clear,10,2012-11-04 20:35:00
3:55 PM,60.8,41.0,48,29.96,10.0,NW,5.8,-,N/A,,Clear,310,2012-11-04 20:55:00
4:15 PM,59.0,41.0,51,29.97,10.0,NW,6.9,17.3,N/A,,Clear,310,2012-11-04 21:15:00
4:35 PM,57.2,39.2,51,29.97,10.0,WNW,6.9,-,N/A,,Clear,300,2012-11-04 21:35:00
4:55 PM,55.4,39.2,54,29.98,10.0,NNW,9.2,-,N/A,,Clear,330,2012-11-04 21:55:00
5:15 PM,53.6,39.2,58,29.98,10.0,NW,3.5,-,N/A,,Clear,320,2012-11-04 22:15:00
5:35 PM,53.6,39.2,58,29.99,10.0,NW,6.9,-,N/A,,Clear,320,2012-11-04 22:35:00
5:55 PM,51.8,37.4,58,30.00,10.0,WNW,12.7,18.4,N/A,,Clear,300,2012-11-04 22:55:00
6:15 PM,51.8,37.4,58,30.00,10.0,WNW,3.5,-,N/A,,Clear,290,2012-11-04 23:15:00
6:35 PM,51.8,37.4,58,30.01,10.0,NW,4.6,-,N/A,,Clear,310,2012-11-04 23:35:00
6:55 PM,51.8,37.4,58,30.01,10.0,WNW,9.2,-,N/A,,Clear,300,2012-11-04 23:55:00
7:15 PM,51.8,37.4,58,30.01,10.0,WNW,5.8,-,N/A,,Clear,300,2012-11-05 00:15:00
7:35 PM,50.0,37.4,62,30.01,10.0,NW,9.2,-,N/A,,Clear,310,2012-11-05 00:35:00
7:55 PM,50.0,37.4,62,30.01,10.0,WNW,4.6,-,N/A,,Clear,300,2012-11-05 00:55:00
8:15 PM,48.2,37.4,66,30.02,10.0,ENE,4.6,-,N/A,,Clear,70,2012-11-05 01:15:00
8:35 PM,48.2,37.4,66,30.03,10.0,WNW,4.6,-,N/A,,Clear,300,2012-11-05 01:35:00
8:55 PM,50.0,37.4,62,30.03,10.0,WNW,6.9,-,N/A,,Clear,290,2012-11-05 01:55:00
9:15 PM,48.2,37.4,66,30.03,10.0,WNW,6.9,-,N/A,,Clear,290,2012-11-05 02:15:00
9:35 PM,48.2,37.4,66,30.03,10.0,WNW,11.5,16.1,N/A,,Clear,300,2012-11-05 02:35:00
9:55 PM,46.4,35.6,66,30.03,10.0,WNW,4.6,-,N/A,,Clear,300,2012-11-05 02:55:00
10:15 PM,46.4,35.6,66,30.03,10.0,WNW,3.5,-,N/A,,Clear,300,2012-11-05 03:15:00
10:35 PM,44.6,35.6,71,30.03,10.0,Calm,Calm,-,N/A,,Clear,0,2012-11-05 03:35:00
10:55 PM,44.6,35.6,71,30.03,10.0,WNW,5.8,-,N/A,,Clear,300,2012-11-05 03:55:00